• In Belarus
  • List of Countries
  • For 7 days
  • Water Temperature
  • Weather Map
  • Weather Widgets
  • user-avatar
    Login

    Hourly Weather Solden

    Today, 4 April, Saturday

    Time Temperature Precipitation Wind Pressure Humidity
    00:00 -6°C° 0 mm 1 mps 579 mmHg 83%
    01:00 -7°C° 0 mm 1 mps 579 mmHg 82%
    02:00 -7°C° 0 mm 1 mps 579 mmHg 80%
    03:00 -7°C° 0 mm 1 mps 579 mmHg 79%
    04:00 -7°C° 0 mm 1 mps 579 mmHg 78%
    05:00 -7°C° 0 mm 1 mps 580 mmHg 75%
    06:00 -6°C° 0 mm 1 mps 581 mmHg 72%
    07:00 -4°C° 0 mm 1 mps 581 mmHg 69%
    08:00 -2°C° 0 mm 1 mps 582 mmHg 63%
    09:00 0°C° 0 mm 1 mps 583 mmHg 57%
    10:00 +2°C° 0 mm 1 mps 584 mmHg 51%
    11:00 +3°C° 0 mm 1 mps 584 mmHg 50%
    12:00 +3°C° 0 mm 1 mps 585 mmHg 49%
    13:00 +4°C° 0 mm 1 mps 585 mmHg 47%
    14:00 +4°C° 0 mm 1 mps 585 mmHg 49%
    15:00 +4°C° 0 mm 1 mps 585 mmHg 51%
    16:00 +4°C° 0 mm 1 mps 584 mmHg 52%
    17:00 +2°C° 0 mm 1 mps 584 mmHg 62%
    18:00 0°C° 0 mm 1 mps 583 mmHg 72%
    19:00 -3°C° 0 mm 0 mps 583 mmHg 81%
    20:00 -3°C° 0 mm 0 mps 583 mmHg 83%
    21:00 -4°C° 0 mm 0 mps 583 mmHg 84%
    22:00 -4°C° 0 mm 0 mps 583 mmHg 85%
    23:00 -4°C° 0 mm 0 mps 583 mmHg 87%

    Tomorrow, 5 April, Sunday

    Time Temperature Precipitation Wind Pressure Humidity
    00:00 -4°C° 0 mm 0 mps 583 mmHg 88%
    01:00 -5°C° 0 mm 0 mps 584 mmHg 89%
    02:00 -4°C° 0 mm 0 mps 584 mmHg 89%
    03:00 -4°C° 0 mm 0 mps 584 mmHg 88%
    04:00 -4°C° 0 mm 0 mps 584 mmHg 87%
    05:00 -4°C° 0 mm 0 mps 584 mmHg 85%
    06:00 -4°C° 0 mm 0 mps 584 mmHg 83%
    07:00 -3°C° 0 mm 0 mps 584 mmHg 81%
    08:00 -1°C° 0 mm 1 mps 585 mmHg 76%
    09:00 +1°C° 0 mm 1 mps 586 mmHg 71%
    10:00 +2°C° 0 mm 1 mps 586 mmHg 66%
    11:00 +3°C° 0 mm 1 mps 586 mmHg 63%
    12:00 +4°C° 0 mm 1 mps 587 mmHg 61%
    13:00 +4°C° 0 mm 2 mps 587 mmHg 58%
    14:00 +4°C° 0 mm 2 mps 587 mmHg 58%
    15:00 +4°C° 0 mm 2 mps 586 mmHg 57%
    16:00 +4°C° 0 mm 2 mps 586 mmHg 57%
    17:00 +3°C° 0 mm 1 mps 585 mmHg 65%
    18:00 +1°C° 0 mm 1 mps 585 mmHg 73%
    19:00 -1°C° 0 mm 1 mps 584 mmHg 82%
    20:00 -1°C° 0 mm 1 mps 584 mmHg 83%
    21:00 -2°C° 0 mm 1 mps 584 mmHg 85%
    22:00 -2°C° 0 mm 1 mps 584 mmHg 86%
    23:00 -2°C° 0 mm 1 mps 584 mmHg 87%

    Day after tomorrow, 6 April, Monday

    Time Temperature Precipitation Wind Pressure Humidity
    00:00 -3°C° 0 mm 1 mps 584 mmHg 88%
    01:00 -3°C° 0 mm 1 mps 584 mmHg 89%
    02:00 -3°C° 0 mm 1 mps 584 mmHg 89%
    03:00 -4°C° 0 mm 1 mps 584 mmHg 89%
    04:00 -4°C° 0 mm 1 mps 584 mmHg 89%
    05:00 -3°C° 0 mm 1 mps 584 mmHg 84%
    06:00 -3°C° 0 mm 1 mps 584 mmHg 80%
    07:00 -3°C° 0 mm 0 mps 585 mmHg 76%
    08:00 0°C° 0 mm 1 mps 586 mmHg 67%
    09:00 +2°C° 0 mm 1 mps 586 mmHg 59%
    10:00 +4°C° 0 mm 1 mps 587 mmHg 50%
    11:00 +5°C° 0 mm 1 mps 588 mmHg 47%
    12:00 +5°C° 0 mm 2 mps 588 mmHg 44%
    13:00 +6°C° 0 mm 2 mps 588 mmHg 41%
    14:00 +6°C° 0 mm 2 mps 588 mmHg 42%
    15:00 +6°C° 0 mm 2 mps 588 mmHg 43%
    16:00 +7°C° 0 mm 1 mps 588 mmHg 44%
    17:00 +5°C° 0 mm 1 mps 587 mmHg 54%
    18:00 +3°C° 0 mm 1 mps 586 mmHg 64%
    19:00 0°C° 0 mm 1 mps 585 mmHg 74%
    20:00 -1°C° 0 mm 0 mps 586 mmHg 76%
    21:00 -2°C° 0 mm 0 mps 586 mmHg 77%
    22:00 -2°C° 0 mm 0 mps 586 mmHg 79%
    23:00 -2°C° 0 mm 0 mps 586 mmHg 79%

    7 April, Tuesday

    Time Temperature Precipitation Wind Pressure Humidity
    00:00 -2°C° 0 mm 0 mps 586 mmHg 80%
    01:00 -2°C° 0 mm 1 mps 586 mmHg 80%
    02:00 -2°C° 0 mm 1 mps 586 mmHg 79%
    03:00 -2°C° 0 mm 1 mps 586 mmHg 78%
    04:00 -2°C° 0 mm 1 mps 586 mmHg 77%
    05:00 -1°C° 0 mm 1 mps 587 mmHg 75%
    06:00 0°C° 0 mm 1 mps 587 mmHg 74%
    07:00 0°C° 0 mm 1 mps 588 mmHg 72%
    08:00 +3°C° 0 mm 1 mps 589 mmHg 64%
    09:00 +5°C° 0 mm 1 mps 590 mmHg 56%
    10:00 +7°C° 0 mm 1 mps 591 mmHg 48%
    11:00 +8°C° 0 mm 1 mps 591 mmHg 46%
    12:00 +9°C° 0 mm 1 mps 591 mmHg 43%
    13:00 +9°C° 0 mm 1 mps 592 mmHg 40%
    14:00 +9°C° 0 mm 1 mps 591 mmHg 43%
    15:00 +8°C° 0 mm 2 mps 591 mmHg 46%
    16:00 +7°C° 0 mm 2 mps 591 mmHg 48%
    17:00 +6°C° 0.1 mm 1 mps 590 mmHg 60%
    18:00 +4°C° 0.1 mm 1 mps 589 mmHg 72%
    19:00 +2°C° 0.1 mm 1 mps 588 mmHg 84%
    20:00 +2°C° 0.1 mm 1 mps 588 mmHg 86%
    21:00 0°C° 0.1 mm 0 mps 588 mmHg 89%
    22:00 -1°C° 0.1 mm 0 mps 588 mmHg 91%
    23:00 -1°C° 0 mm 0 mps 588 mmHg 91%

    8 April, Wednesday

    Time Temperature Precipitation Wind Pressure Humidity
    00:00 -1°C° 0 mm 0 mps 588 mmHg 92%
    01:00 -1°C° 0 mm 0 mps 588 mmHg 92%
    02:00 -1°C° 0 mm 0 mps 588 mmHg 92%
    03:00 -1°C° 0 mm 0 mps 588 mmHg 92%
    04:00 -1°C° 0 mm 0 mps 588 mmHg 91%
    05:00 -1°C° 0 mm 0 mps 588 mmHg 89%
    06:00 0°C° 0 mm 0 mps 588 mmHg 87%
    07:00 0°C° 0 mm 0 mps 588 mmHg 85%
    08:00 +1°C° 0 mm 0 mps 588 mmHg 78%
    09:00 +4°C° 0 mm 1 mps 589 mmHg 71%
    10:00 +6°C° 0 mm 1 mps 590 mmHg 64%
    11:00 +6°C° 0 mm 1 mps 590 mmHg 62%
    12:00 +7°C° 0 mm 1 mps 590 mmHg 60%
    13:00 +6°C° 0 mm 2 mps 590 mmHg 58%
    14:00 +6°C° 0.1 mm 2 mps 589 mmHg 59%
    15:00 +6°C° 0.1 mm 2 mps 589 mmHg 61%
    16:00 +6°C° 0.1 mm 2 mps 589 mmHg 62%
    17:00 +5°C° 0.2 mm 1 mps 588 mmHg 69%
    18:00 +4°C° 0.2 mm 1 mps 587 mmHg 76%
    19:00 +2°C° 0.2 mm 1 mps 587 mmHg 83%
    20:00 +2°C° 0.1 mm 1 mps 587 mmHg 85%
    21:00 0°C° 0.1 mm 0 mps 587 mmHg 86%
    22:00 0°C° 0.1 mm 0 mps 587 mmHg 87%
    23:00 -1°C° 0 mm 0 mps 587 mmHg 88%

    9 April, Thursday

    Time Temperature Precipitation Wind Pressure Humidity
    00:00 -1°C° 0 mm 0 mps 587 mmHg 89%
    01:00 -2°C° 0 mm 0 mps 587 mmHg 90%
    02:00 -2°C° 0 mm 0 mps 586 mmHg 90%
    03:00 -2°C° 0 mm 0 mps 586 mmHg 90%
    04:00 -2°C° 0 mm 0 mps 586 mmHg 90%
    05:00 -2°C° 0 mm 0 mps 586 mmHg 87%
    06:00 -1°C° 0 mm 0 mps 586 mmHg 84%
    07:00 -1°C° 0 mm 0 mps 587 mmHg 81%
    08:00 +1°C° 0 mm 0 mps 587 mmHg 74%
    09:00 +4°C° 0 mm 1 mps 588 mmHg 66%
    10:00 +6°C° 0 mm 1 mps 589 mmHg 59%
    11:00 +7°C° 0 mm 1 mps 589 mmHg 55%
    12:00 +8°C° 0 mm 1 mps 589 mmHg 51%
    13:00 +8°C° 0 mm 2 mps 589 mmHg 47%
    14:00 +8°C° 0 mm 2 mps 589 mmHg 46%
    15:00 +8°C° 0 mm 2 mps 589 mmHg 45%
    16:00 +8°C° 0 mm 2 mps 589 mmHg 44%
    17:00 +7°C° 0 mm 1 mps 588 mmHg 54%
    18:00 +5°C° 0 mm 1 mps 587 mmHg 63%
    19:00 +2°C° 0 mm 1 mps 585 mmHg 73%
    20:00 +2°C° 0 mm 1 mps 585 mmHg 76%
    21:00 0°C° 0 mm 0 mps 585 mmHg 79%
    22:00 0°C° 0 mm 0 mps 585 mmHg 81%
    23:00 -1°C° 0 mm 0 mps 585 mmHg 82%
    Show more